This is the latest recevied weather packets stored in our database for station/object VR2OT-10. If no packets are shown the sender has not sent any weather packets the latest 10 day(s).
| Time | Temp. | Humidity | Pressure | Rain* | Wind** | Luminosity | Snow |
|---|---|---|---|---|---|---|---|
| 1787883931 | 29.44° C | 84% | 1003.2 hPa | - | 3.13 m/s, 270° | - | - |
| 1787883034 | 29.44° C | 82% | 1003.3 hPa | - | 2.68 m/s, 315° | - | - |
| 1787882133 | 29.44° C | 80% | 1003.2 hPa | - | 1.79 m/s, 315° | - | - |
| 1787881232 | 29.44° C | 81% | 1003.2 hPa | - | 2.68 m/s, 315° | - | - |
| 1787880333 | 29.44° C | 86% | 1003.2 hPa | - | 1.79 m/s, 270° | - | - |
| 1787879433 | 29.44° C | 87% | 1003.2 hPa | - | 1.34 m/s, 270° | - | - |
| 1787878532 | 28.89° C | 89% | 1003.2 hPa | - | 1.79 m/s, 270° | - | - |
| 1787877634 | 28.89° C | 88% | 1003.2 hPa | - | 1.79 m/s, 270° | - | - |
| 1787876732 | 28.33° C | 89% | 1003.1 hPa | - | 1.34 m/s, 270° | - | - |
| 1787875831 | 28.33° C | 89% | 1003.1 hPa | - | 2.24 m/s, 270° | - | - |
| 1787874933 | 28.89° C | 89% | 1003 hPa | - | 1.34 m/s, 315° | - | - |
| 1787874034 | 28.33° C | 89% | 1003 hPa | - | 1.79 m/s, 270° | - | - |
| 1787873131 | 28.33° C | 89% | 1002.7 hPa | - | 1.34 m/s, 270° | - | - |
| 1787872234 | 28.33° C | 89% | 1002.5 hPa | - | 2.68 m/s, 270° | - | - |
| 1787871333 | 28.33° C | 90% | 1002.2 hPa | - | 2.68 m/s, 270° | - | - |
| 1787870432 | 28.89° C | 89% | 1002.3 hPa | - | 1.34 m/s, 315° | - | - |
| 1787869532 | 28.33° C | 88% | 1002.2 hPa | - | 1.79 m/s, 270° | - | - |
| 1787868634 | 28.33° C | 87% | 1002.2 hPa | - | 0.45 m/s, 315° | - | - |
| 1787867732 | 28.33° C | 86% | 1002.2 hPa | - | 1.34 m/s, 270° | - | - |
| 1787866833 | 28.89° C | 86% | 1002.2 hPa | - | 1.34 m/s, 270° | - | - |
| 1787865933 | 28.89° C | 89% | 1002.2 hPa | - | 1.34 m/s, 270° | - | - |
| 1787865032 | 28.89° C | 92% | 1002.2 hPa | - | 1.34 m/s, 270° | - | - |
| 1787864133 | 28.33° C | 88% | 1002.3 hPa | - | 1.34 m/s, 270° | - | - |
| 1787863233 | 28.33° C | 87% | 1002.3 hPa | - | 1.34 m/s, 270° | - | - |
| 1787862331 | 28.33° C | 86% | 1002.5 hPa | - | 3.13 m/s, 270° | - | - |
* Rain since midnight (hover to see other rain measurements)
** Current wind speed in m/s (hover to see current wind gust speed)